Starlink 11112

operational
NORAD ID: 60115 Int'l Des: 2024-118 Owner: SPXS Country: US Constellation: starlink
LEOCIRCULAR

Über Starlink 11112

Beschreibung wird geladen...

Live-Position

3D-Globus wird geladen...

Nächste Überflüge

Höhenverlauf

Altitude vs Time

uPlot chart will show altitude changes over time

Zweizeiliger Elementsatz

1 60115U 24118C 26095.19570030 .00003110 00000-0 30529-4 0 9994
2 60115 53.1570 90.8004 0001084 118.3801 241.7326 15.69697717102154
Epoch: 5. Apr. 2026 • Age: 13 hours

Aktueller Status

Höhe 364.2 km
Geschwindigkeit 7.69 km/s
Subsatellitenpunkt -16.82°S, 179.52°W
Startdatum 24. Juni 2024
Alter 1.7 years
Typ internet

Technische Details

Klassifizierung Payload
Masse 960.00 kg
Trockenmasse 910.00 kg
Gesamtmasse 960.00 kg
Länge 0.30 m
Durchmesser 4.10 m
Spannweite 29.00 m
Form Box + pan
Hersteller SPXS
Bus-Typ Starlink V2MD
Phasenstatus In Orbit
Besitzer/Staat SPXS/US

Große Konstellationen

Loading constellations...